Weather History for Coffeyville, KS

Change the Weather History Date:

Tuesday, August 27, 2013

  Actual Average Record
Temperature  
Mean Temperature 80 °F -  
Max Temperature 93 °F 90 °F 102 °F (1998)
Min Temperature 69 °F 65 °F 55 °F (2010)
Cooling Degree Days 15    
Growing Degree Days 30 (Base 50)    
Moisture  
Dew Point 68 °F    
Average Humidity 68    
Maximum Humidity 91    
Minimum Humidity 38    
Precipitation  
Precipitation 0.00 in - - ()
Sea Level Pressure  
Sea Level Pressure 30.05 in    
Wind  
Wind Speed 5 mph (South)    
Max Wind Speed 14 mph    
Max Gust Speed 21 mph    
Visibility 10 miles    
Events      
Averages and records for this station are not official NWS values.
T = Trace of Precipitation, MM = Missing Value Source: NWS Daily Summary

Daily Weather History Graph

Daily Weather History Graph

Search for Another Location

Airport:

Trip Planner

Search our weather history database for the weather conditions in past years. The results will help you decide how hot, cold, wet, or windy it might be!

Date:

Astronomy

Aug. 27, 2013 Rise Set
Actual Time 6:49 AM CDT 7:57 PM CDT
Civil Twilight 6:22 AM CDT 8:24 PM CDT
Nautical Twilight 5:50 AM CDT 8:56 PM CDT
Astronomical Twilight 5:16 AM CDT 9:29 PM CDT
Moon No Moon Rise 1:37 PM CDT (8/27)
Length of Visible Light 14h 02m
Length of Day
13h 08m
Waning Gibbous, 57% of the Moon is Illuminated
Aug 27
Waning Gibbous
Aug 28
Last Quarter
Sep 5
New
Sep 12
First Quarter
Sep 19
Full

Hourly Weather History & Observations

Time (CDT) Temp. Heat Index Dew Point Humidity Pressure Visibility Wind Dir Wind Speed Gust Speed Precip Events Conditions
1:52 AM 72.0 °F - 69.1 °F 91% 30.06 in 9.0 mi Calm Calm - N/A   Clear
2:52 AM 72.0 °F - 69.1 °F 91% 30.06 in 9.0 mi Calm Calm - N/A   Clear
3:52 AM 72.0 °F - 66.9 °F 84% 30.06 in 10.0 mi Calm Calm - N/A   Clear
4:52 AM 69.1 °F - 66.0 °F 90% 30.06 in 10.0 mi Calm Calm - N/A   Clear
5:52 AM 69.1 °F - 66.0 °F 90% 30.07 in 10.0 mi South 4.6 mph - N/A   Clear
6:52 AM 69.1 °F - 66.0 °F 90% 30.08 in 9.0 mi SSE 3.5 mph - N/A   Clear
7:52 AM 71.1 °F - 66.9 °F 87% 30.09 in 9.0 mi South 5.8 mph - N/A   Clear
8:52 AM 77.0 °F - 68.0 °F 74% 30.09 in 10.0 mi South 6.9 mph - N/A   Clear
9:52 AM 81.0 °F 84.1 °F 69.1 °F 67% 30.10 in 10.0 mi SSW 11.5 mph - N/A   Clear
10:52 AM 84.9 °F 89.4 °F 70.0 °F 61% 30.10 in 10.0 mi SSW 13.8 mph - N/A   Clear
11:52 AM 88.0 °F 92.1 °F 69.1 °F 53% 30.09 in 10.0 mi SW 13.8 mph - N/A   Clear
12:52 PM 90.0 °F 95.4 °F 70.0 °F 52% 30.07 in 10.0 mi SSW 10.4 mph 20.7 mph N/A   Clear
1:52 PM 91.0 °F 95.6 °F 69.1 °F 48% 30.05 in 10.0 mi SSW 11.5 mph 20.7 mph N/A   Partly Cloudy
2:52 PM 91.9 °F 93.3 °F 64.0 °F 39% 30.03 in 10.0 mi South 10.4 mph - N/A   Partly Cloudy
3:52 PM 91.9 °F 92.9 °F 63.0 °F 38% 30.01 in 10.0 mi South 11.5 mph - N/A   Partly Cloudy
4:52 PM 91.9 °F 94.1 °F 64.9 °F 41% 30.01 in 10.0 mi South 12.7 mph - N/A   Mostly Cloudy
5:52 PM 90.0 °F 92.4 °F 66.0 °F 45% 30.01 in 10.0 mi South 10.4 mph - N/A   Mostly Cloudy
6:52 PM 88.0 °F 90.7 °F 66.9 °F 49% 30.00 in 10.0 mi South 6.9 mph - N/A   Partly Cloudy
7:52 PM 82.9 °F 85.8 °F 68.0 °F 60% 30.00 in 10.0 mi SSE 3.5 mph - N/A   Clear
8:52 PM 79.0 °F - 69.1 °F 72% 30.01 in 10.0 mi SSE 3.5 mph - N/A   Clear
9:52 PM 77.0 °F - 69.1 °F 76% 30.02 in 10.0 mi SSE 4.6 mph - N/A   Clear
10:52 PM 75.9 °F - 70.0 °F 82% 30.02 in 10.0 mi Calm Calm - N/A   Clear
11:52 PM 75.0 °F - 69.1 °F 82% 30.02 in 10.0 mi Calm Calm - N/A   Clear